Regional Weather Roundup
Issued by NWS Burlington, VT

Current Version | Previous Version | Text Only | Print | Product List | Glossary Off
Versions: 1 2 3 4 5 6 7 8 9 10 11 12 13 14 15 16 17 18 19 20 21 22 23 24 25 26 27 28

000
ASUS41 KBTV 242210
RWRBTV
VERMONT REGIONAL WEATHER ROUNDUP
NATIONAL WEATHER SERVICE BURLINGTON VT
600 PM EDT FRI OCT 24 2014

NOTE: "FAIR" INDICATES FEW OR NO CLOUDS BELOW 12,000 FEET WITH NO
SIGNIFICANT WEATHER AND/OR OBSTRUCTIONS TO VISIBILITY.

* THESE REPORTS ARE NOT UNDER NWS QUALITY CONTROL AND/OR DO NOT
  REPORT WEATHER SUCH AS PRECIPITATION AND FOG.

VTZ001>019-242300-
_____VERMONT_____


CITY           SKY/WX    TMP DP  RH WIND       PRES   REMARKS
BURLINGTON     CLOUDY    48  40  73 N5        29.84S
MONTPELIER     CLOUDY    42  39  89 NW7       29.83R
MORRISVILLE    CLOUDY    45  39  79 N9        29.83R
ST. JOHNSBURY*   N/A     45  41  86 MISG      29.76R
LYNDONVILLE*   CLOUDY    43  39  86 W8        29.78S
MIDDLEBURY*    CLOUDY    45  45  99 N12G18    29.83R
RUTLAND*       CLOUDY    45  39  81 NW9       29.80S
SPRINGFIELD    CLOUDY    47  40  76 W3        29.77R
HIGHGATE*      CLOUDY    47  41  80 CALM      29.83S
NEWPORT*       CLOUDY    43  39  88 NW7       29.81R
BENNINGTON     CLOUDY    45  42  89 W5        29.81R
SUTTON*          N/A     41 N/A N/A MISG        N/A

_____LAKE CHAMPLAIN_____


CITY           SKY/WX    TMP DP  RH WIND       PRES   REMARKS
COLCHESTER RF*   N/A     52  41  66 NW14        N/A
DIAMOND ISL*     N/A     50  41  71 NW13        N/A

$$

NYZ007-026>031-035-052-083-242300-
_____NORTHERN NEW YORK_____


CITY           SKY/WX    TMP DP  RH WIND       PRES   REMARKS
PLATTSBURGH    CLOUDY    50  41  71 W5        29.84S
SARANAC LAKE   CLOUDY    46  41  82 CALM      29.84R
MASSENA        MOCLDY    54  43  66 S6        29.85S
OGDENSBURG*    CLEAR     54  41  62 CALM      29.84S
POTSDAM*       CLOUDY    54  46  76 S3        29.84S
WATERTOWN      CLEAR     53  45  74 SW8       29.88R
FT DRUM        CLEAR     53  42  66 W8        29.86S
ALBANY         CLOUDY    48  44  86 NE6       29.82S
GLENS FALLS    CLOUDY    47  44  90 E7        29.84R

$$
NHZ002-005-011-242300-
_____NEW HAMPSHIRE_____


CITY           SKY/WX    TMP DP  RH WIND       PRES   REMARKS
LEBANON        CLOUDY    48  38  68 N13G20    29.77R
KEENE          CLOUDY    48  36  61 NW6       29.75S
MT WASHINGTON  FOG       37  37 100 N32         N/A  VSB 1/8
PLYMOUTH       CLOUDY    46  44  92 W8G17     29.71S
WHITEFIELD     CLOUDY    44  40  85 VRB3      29.76R

$$

_____REGIONAL QUEBEC LOCATIONS_____


CITY           SKY/WX    TMP DP  RH WIND       PRES   REMARKS
MONTREAL       MOCLDY    50  41  71 SW9       29.83S
QUEBEC CITY    MOCLDY    46  34  61 CALM      29.81F

_____REGIONAL ONTARIO LOCATIONS_____


CITY           SKY/WX    TMP DP  RH WIND       PRES   REMARKS
OTTAWA         PTCLDY    54  41  62 W7        29.84S

______KEY______
VSB  - VISIBILITY IN MILES
WCI  - WIND CHILL INDEX
HX   - HEAT INDEX
$$
NNNN



USA.gov is the U.S. government's official web portal to all federal, state and local government web resources and services.